Khon Kaen, Thailand

3:38 PM +07 on May 26, 2018 (GMT +0700)
Khon Kaen

Weather History for VTUK - November, 2012

Change the Weather History Date:

Sunday, November 18, 2012

  Actual Average Record
Temperature  
Mean Temperature 79 °F -  
Max Temperature 88 °F 86 °F - ()
Min Temperature 70 °F 64 °F - ()
Cooling Degree Days 14    
Growing Degree Days 29 (Base 50)    
Moisture  
Dew Point 68 °F    
Average Humidity 64    
Maximum Humidity 83    
Minimum Humidity 38    
Precipitation  
Precipitation 0.00 in 0.01 in - ()
Sea Level Pressure  
Sea Level Pressure 29.89 in    
Wind  
Wind Speed 3 mph ()    
Max Wind Speed 8 mph    
Max Gust Speed -    
Visibility 6.2 miles    
Events      
T = Trace of Precipitation, MM = Missing Value Source: Averaged Metar Reports

Daily Weather History Graph

Daily Weather History Graph

Search for Another Location

Airport or City:

Astronomy

Nov. 18, 2012 Rise Set
Actual Time 6:13 AM +07 5:33 PM +07
Civil Twilight 5:50 AM +07 5:56 PM +07
Nautical Twilight 5:24 AM +07 6:22 PM +07
Astronomical Twilight 4:58 AM +07 6:48 PM +07
Moon 10:22 AM +07 (11/18) 10:08 PM +07 (11/18)
Length of Visible Light 12h 05m
Length of Day
11h 20m
Waxing Crescent, 25% of the Moon is Illuminated
Nov 18
Waxing Crescent
Nov 20
First Quarter
Nov 28
Full
Dec 6
Last Quarter
Dec 13
New

Hourly Weather History & Observations

Time (+07) Temp. Heat Index Dew Point Humidity Pressure Visibility Wind Dir Wind Speed Gust Speed Precip Events Conditions
1:00 AM 75 °F - 66 °F 66% 29.89 in 6 mi East 3.5 mph - -   Scattered Clouds
6:00 AM 71.6 °F - 66.2 °F 83% 29.89 in 5.6 mi Variable 2.3 mph - N/A   Scattered Clouds
7:00 AM 70 °F - 64 °F 75% 29.93 in 6 mi NE 1.2 mph - -   Scattered Clouds
7:00 AM 71.6 °F - 66.2 °F 83% 29.92 in 6.2 mi Variable 1.2 mph - N/A   Scattered Clouds
8:00 AM 75.2 °F - 66.2 °F 73% 29.95 in 6.2 mi ENE 5.8 mph - N/A   Scattered Clouds
9:00 AM 78.8 °F - 68.0 °F 69% 29.98 in 6.2 mi ENE 5.8 mph - N/A   Scattered Clouds
10:00 AM 82.4 °F 85.4 °F 68.0 °F 62% 29.95 in 6.2 mi ENE 8.1 mph - N/A   Partly Cloudy
11:00 AM 84.2 °F 87.3 °F 68.0 °F 58% 29.95 in 6.2 mi East 8.1 mph - N/A   Mostly Cloudy
12:00 PM 84.2 °F 87.3 °F 68.0 °F 58% 29.92 in 6.2 mi ENE 5.8 mph - N/A   Mostly Cloudy
1:00 PM 85 °F - 63 °F 38% 29.86 in 7 mi ENE 4.6 mph - -   Scattered Clouds
1:00 PM 86.0 °F 89.4 °F 68.0 °F 55% 29.89 in 6.2 mi ENE 4.6 mph - N/A   Mostly Cloudy
2:00 PM 86.0 °F 90.4 °F 69.8 °F 58% 29.86 in 6.2 mi ENE 3.5 mph - N/A   Mostly Cloudy
3:00 PM 84.2 °F 88.4 °F 69.8 °F 62% 29.83 in 6.2 mi SSE 3.5 mph - N/A   Mostly Cloudy
4:00 PM 86.0 °F 91.8 °F 71.6 °F 62% 29.83 in 6.2 mi Variable 2.3 mph - N/A   Mostly Cloudy
5:00 PM 84.2 °F 88.4 °F 69.8 °F 62% 29.83 in 6.2 mi Variable 1.2 mph - N/A   Mostly Cloudy
6:00 PM 82.4 °F 86.3 °F 69.8 °F 66% 29.86 in 6.2 mi Variable 2.3 mph - N/A   Mostly Cloudy
7:00 PM 82 °F - 67 °F 51% 29.86 in 6 mi Calm Calm - -   Scattered Clouds
7:00 PM 80.6 °F 84.6 °F 71.6 °F 74% 29.86 in 6.2 mi East 3.5 mph - N/A   Mostly Cloudy
8:00 PM 80.6 °F 83.9 °F 69.8 °F 70% 29.89 in 6.2 mi East 3.5 mph - N/A   Mostly Cloudy